Tracking 29892 objects as of 21-Nov-2024
HD Live streaming from Space Station
objects crossing your sky now

NOAA 16 DEB

Track NOAA 16 DEB now!
10-day predictions


NORAD ID: 41515
Int'l Code: 2000-055MP
Perigee: 594.4 km
Apogee: 607.4 km
Inclination: 98.9 °
Period: 96.6 minutes
Semi major axis: 6971 km
RCS: Unknown
Launch date: September 21, 2000
Source: United States (US)
Launch site: AIR FORCE WESTERN TEST RANGE (AFWTR)

Note: This is SATELLITE DEBRIS
Your satellite tracking list
Your tracking list is empty




NASA's NSSDC Master Catalog

Two Line Element Set (TLE):
1 41515U 00055MP  24324.01615333  .00132326  00000-0  13019-1 0  9995
2 41515  98.9456 165.0660 0009340 358.3722   1.7461 14.91348637446963
Source of the keplerian elements: AFSPC